Location: Boleita
(10.4833°N, 66.8167°W)
Time: 02:39:07
(UTC+00:00)

Aurora 2 Rocket - Pass Details

Date: 08 November 2025
Orbit: 385 x 1546 km, 25.0° (Epoch: 09 December)

Event Time Altitude Azimuth Distance (km) Brightness Sun altitude
Exits shadow 08:50:16 41° 146° (SE) 570 2.7 -22.2°
Drops below altitude 10° 08:52:34 10° 124° (SE) 1,440 5.4 -21.6°
Sets 08:54:47 0° 120° (ESE) 2,377 6.9 -21.1°
